FW9698 Weather Reports


time (UTC)temp
C
wind
direction
speed
KPH
gust
KPH
rain 1hr
cm
rain 24hr
cm
rain mn
cm
humidity
%
barometer
mb
20260906220927 38 104 0.0 3.2 0.00 0.00 0.00 30 1013.8
20260906215026 39 137 1.6 6.4 0.00 0.00 0.00 31 1013.7
20260906213127 38 152 1.6 3.2 0.00 0.00 0.00 33 1013.8
20260906213026 38 347 0.0 1.6 0.00 0.00 0.00 34 1013.8
20260906211128 38 139 4.8 11.3 0.00 0.00 0.00 34 1014.1
20260906210128 38 166 3.2 8.0 0.00 0.00 0.00 32 1014.3
20260906205226 38 67 1.6 4.8 0.00 0.00 0.00 37 1014.5
20260906204225 38 106 0.0 3.2 0.00 0.00 0.00 32 1014.6
20260906203227 38 91 3.2 4.8 0.00 0.00 0.00 38 1014.8
20260906202227 38 97 3.2 4.8 0.00 0.00 0.00 38 1014.8
20260906201226 37 66 1.6 4.8 0.00 0.00 0.00 39 1014.8
20260906200226 37 128 3.2 6.4 0.00 0.00 0.00 35 1015.0
20260906195227 37 134 6.4 9.7 0.00 0.00 0.00 35 1015.4
20260906193426 37 5 0.0 1.6 0.00 0.00 0.00 42 1015.4
20260906192426 37 137 3.2 4.8 0.00 0.00 0.00 38 1015.7
20260906191427 37 98 3.2 9.7 0.00 0.00 0.00 42 1015.6
20260906190526 37 34 1.6 4.8 0.00 0.00 0.00 42 1015.7
20260906185625 37 61 4.8 9.7 0.00 0.00 0.00 38 1015.8
20260906184627 37 67 1.6 3.2 0.00 0.00 0.00 41 1015.9
20260906183527 37 105 1.6 4.8 0.00 0.00 0.00 40 1016.1
20260906181625 37 135 3.2 6.4 0.00 0.00 0.00 45 1016.4
20260906180627 36 88 1.6 4.8 0.00 0.00 0.00 39 1016.5
20260906175725 37 117 6.4 11.3 0.00 0.00 0.00 44 1016.6
20260906174726 37 67 1.6 4.8 0.00 0.00 0.00 47 1016.9
20260906173824 36 81 1.6 3.2 0.00 0.00 0.00 45 1017.0
20260906172825 36 140 0.0 6.4 0.00 0.00 0.00 44 1017.0
20260906171825 37 84 3.2 6.4 0.00 0.00 0.00 47 1017.1
20260906170827 36 87 3.2 4.8 0.00 0.00 0.00 50 1017.2
20260906165827 36 124 1.6 3.2 0.00 0.00 0.00 47 1017.4
20260906164925 36 74 3.2 8.0 0.00 0.00 0.00 47 1017.2
20260906163925 36 52 1.6 6.4 0.00 0.00 0.00 46 1017.5
20260906162926 35 159 1.6 4.8 0.00 0.00 0.00 43 1017.4
20260906155941 35 300 1.6 4.8 0.00 0.00 0.00 49 1017.3
20260906155026 35 52 3.2 3.2 0.00 0.00 0.00 61 1017.3
20260906154026 34 67 0.0 1.6 0.00 0.00 0.00 65 1017.3
20260906151126 31 45 0.0 1.6 0.00 0.00 0.00 65 1017.2
20260906145127 30 45 3.2 3.2 0.00 0.00 0.00 67 1017.2
20260906144127 30 135 0.0 0.0 0.00 0.00 0.00 69 1017.3
20260906143127 29 135 0.0 0.0 0.00 0.00 0.00 70 1017.2
20260906142127 28 135 0.0 0.0 0.00 0.00 0.00 71 1017.2
20260906141225 28 135 0.0 0.0 0.00 0.00 0.00 72 1017.2
20260906135226 27 135 0.0 1.6 0.00 0.00 0.00 68 1017.4
20260906133225 26 135 3.2 6.4 0.00 0.00 0.00 63 1017.3
20260906132324 26 157 1.6 4.8 0.00 0.00 0.00 65 1017.4
20260906131326 25 135 0.0 1.6 0.00 0.00 0.00 67 1017.4
20260906130325 25 135 0.0 1.6 0.00 0.00 0.00 67 1017.3
20260906124426 24 135 0.0 0.0 0.00 0.00 0.00 67 1017.0
20260906123524 24 135 0.0 0.0 0.00 0.00 0.00 67 1017.2
20260906121525 23 135 0.0 0.0 0.00 0.00 0.00 67 1016.8
20260906120526 24 135 0.0 0.0 0.00 0.00 0.00 66 1016.7
20260906115523 24 135 0.0 0.0 0.00 0.00 0.00 67 1016.6
20260906114524 24 135 0.0 0.0 0.00 0.00 0.00 65 1016.5
20260906113523 24 135 0.0 0.0 0.00 0.00 0.00 65 1016.5
20260906110524 25 135 0.0 0.0 0.00 0.00 0.00 65 1016.1
20260906105526 25 135 0.0 0.0 0.00 0.00 0.00 65 1016.0
20260906103625 25 135 0.0 0.0 0.00 0.00 0.00 65 1015.9
20260906102624 25 135 0.0 0.0 0.00 0.00 0.00 65 1016.0
20260906101625 25 135 0.0 0.0 0.00 0.00 0.00 65 1015.9
20260906100624 25 135 0.0 0.0 0.00 0.00 0.00 65 1015.7
20260906095641 25 135 0.0 0.0 0.00 0.00 0.00 64 1015.6
20260906094724 25 135 0.0 0.0 0.00 0.00 0.00 63 1015.6
20260906093725 25 135 0.0 0.0 0.00 0.00 0.00 63 1015.5
20260906092726 25 135 0.0 0.0 0.00 0.00 0.00 61 1015.6
20260906091724 26 135 0.0 0.0 0.00 0.00 0.00 61 1015.5
20260906090726 25 135 0.0 0.0 0.00 0.00 0.00 61 1015.4
20260906085824 26 135 0.0 0.0 0.00 0.00 0.00 60 1015.2
20260906084824 26 135 0.0 0.0 0.00 0.00 0.00 61 1015.1
20260906083826 26 135 0.0 0.0 0.00 0.00 0.00 60 1015.2
20260906081923 26 135 0.0 0.0 0.00 0.00 0.00 59 1015.3
20260906080926 26 135 0.0 0.0 0.00 0.00 0.00 59 1015.2
20260906075024 26 135 0.0 0.0 0.00 0.00 0.00 58 1015.1
20260906073024 27 135 0.0 0.0 0.00 0.00 0.00 56 1015.2
20260906072025 27 292 0.0 0.0 0.00 0.00 0.00 55 1015.3
20260906071024 27 135 0.0 0.0 0.00 0.00 0.00 55 1015.3
20260906070025 27 135 0.0 0.0 0.00 0.00 0.00 55 1015.1
20260906065024 27 135 0.0 0.0 0.00 0.00 0.00 54 1015.2
20260906064025 27 135 0.0 0.0 0.00 0.00 0.00 54 1015.2
20260906063025 28 135 0.0 0.0 0.00 0.00 0.00 53 1015.4
20260906062027 28 135 0.0 0.0 0.00 0.00 0.00 53 1015.4
20260906061024 28 157 0.0 0.0 0.00 0.00 0.00 52 1015.4
20260906060925 28 157 0.0 0.0 0.00 0.00 0.00 53 1015.3
20260906055925 28 157 0.0 0.0 0.00 0.00 0.00 52 1015.3
20260906054926 28 141 0.0 1.6 0.00 0.00 0.00 52 1015.2
20260906053924 28 135 0.0 0.0 0.00 0.00 0.00 51 1015.3
20260906052926 28 133 0.0 0.0 0.00 0.00 0.00 51 1015.6
20260906052024 28 135 3.2 4.8 0.00 0.00 0.00 50 1015.5
20260906051025 28 135 0.0 1.6 0.00 0.00 0.00 51 1015.5
20260906050048 28 146 0.0 1.6 0.00 0.00 0.00 49 1015.4
20260906045030 29 157 0.0 0.0 0.00 0.00 0.00 49 1015.2
20260906044130 29 135 0.0 1.6 0.00 0.00 0.00 48 1015.5
20260906043131 30 135 0.0 0.0 0.00 0.00 0.00 48 1015.4
20260906042130 30 135 0.0 1.6 0.00 0.00 0.00 48 1015.4
20260906040131 30 135 0.0 1.6 0.00 0.00 0.00 47 1015.4
20260906035132 30 135 0.0 3.2 0.00 0.00 0.00 47 1015.5
20260906034130 30 135 1.6 4.8 0.00 0.00 0.00 47 1015.6
20260906033131 30 138 1.6 6.4 0.00 0.00 0.00 47 1015.6
20260906032132 30 135 0.0 1.6 0.00 0.00 0.00 46 1015.4
20260906031129 30 135 3.2 6.4 0.00 0.00 0.00 47 1015.5
20260906030130 31 129 4.8 9.7 0.00 0.00 0.00 45 1015.4
20260906025131 31 135 1.6 3.2 0.00 0.00 0.00 45 1015.2
20260906024129 31 105 1.6 6.4 0.00 0.00 0.00 45 1015.3
20260906023129 31 138 4.8 8.0 0.00 0.00 0.00 45 1015.0
20260906021129 32 150 4.8 14.5 0.00 0.00 0.00 41 1014.6
20260906013230 32 247 0.0 0.0 0.00 0.00 0.00 38 1013.8
20260906012229 32 247 0.0 0.0 0.00 0.00 0.00 37 1013.8
20260906011231 33 247 0.0 0.0 0.00 0.00 0.00 35 1013.8
20260906010329 34 247 0.0 0.0 0.00 0.00 0.00 34 1013.8
20260906005330 35 247 0.0 0.0 0.00 0.00 0.00 34 1013.8
20260906004331 35 247 0.0 0.0 0.00 0.00 0.00 33 1013.6
20260906003329 36 247 0.0 0.0 0.00 0.00 0.00 31 1013.7
20260906003229 36 239 0.0 0.0 0.00 0.00 0.00 31 1013.6
20260906002228 36 135 0.0 0.0 0.00 0.00 0.00 29 1013.7
20260906001231 37 135 0.0 0.0 0.00 0.00 0.00 29 1013.6
20260906000228 37 135 0.0 0.0 0.00 0.00 0.00 31 1013.5
20260905235229 36 141 3.2 6.4 0.00 0.00 0.00 32 1013.6
20260905234229 37 135 1.6 3.2 0.00 0.00 0.00 36 1013.5
20260905233129 37 90 0.0 0.0 0.00 0.00 0.00 27 1013.3
20260905232131 37 90 0.0 0.0 0.00 0.00 0.00 29 1013.3
20260905231131 38 104 0.0 1.6 0.00 0.00 0.00 34 1013.6
20260905225130 38 28 0.0 3.2 0.00 0.00 0.00 30 1013.4
20260905224129 38 39 1.6 3.2 0.00 0.00 0.00 28 1013.5
20260905223228 40 103 1.6 4.8 0.00 0.00 0.00 30 1013.5
20260905222230 40 45 0.0 1.6 0.00 0.00 0.00 32 1013.5
20260905222128 40 45 1.6 3.2 0.00 0.00 0.00 32 1013.5